GYPSY KTBN-KFOE

Flight info

Callsign GYPSY
Flight time N/A
Altitude 8000
Route AUGIE DODSN
Aircraft C210/L-SDFGR/C

Departure

Time 2026-04-23 17:01
Airport Waynesville-St. Robert Regional Airport-Forney Field (KTBN)

Arrival

Time N/A
Airport Topeka Regional Airport (KFOE)
Time Latitude Longitude Altitude Speed Heading
2026-04-23 16:56 37.73321 -92.13794 1137 ft 0 kts 294°
2026-04-23 16:57 37.73322 -92.13795 1137 ft 0 kts 292°
2026-04-23 16:57 37.73362 -92.13836 1137 ft 15 kts 351°
2026-04-23 16:58 37.73486 -92.13798 1139 ft 17 kts 19°
2026-04-23 16:58 37.73582 -92.13746 1140 ft 12 kts 27°
2026-04-23 16:58 37.73651 -92.13696 1140 ft 10 kts 20°
2026-04-23 16:58 37.73748 -92.13740 1140 ft 33 kts 324°
2026-04-23 16:59 37.74065 -92.14000 1140 ft 70 kts 326°
2026-04-23 16:59 37.74499 -92.14316 1192 ft 73 kts 311°
2026-04-23 16:59 37.74891 -92.14638 1285 ft 67 kts 306°
2026-04-23 16:59 37.75235 -92.15044 1351 ft 70 kts 279°
2026-04-23 17:00 37.75528 -92.15518 1508 ft 68 kts 285°
2026-04-23 17:00 37.75874 -92.15953 1647 ft 66 kts 296°
2026-04-23 17:00 37.76221 -92.16473 1678 ft 88 kts 291°
2026-04-23 17:00 37.76604 -92.17234 1645 ft 116 kts 285°
2026-04-23 17:01 37.76993 -92.18134 1845 ft 116 kts 285°
2026-04-23 17:01 37.77365 -92.19030 2027 ft 116 kts 287°
2026-04-23 17:01 37.77729 -92.19948 2250 ft 117 kts 281°
2026-04-23 17:01 37.78081 -92.20869 2454 ft 117 kts 281°
2026-04-23 17:02 37.78427 -92.21809 2661 ft 117 kts 282°
2026-04-23 17:02 37.78760 -92.22751 2857 ft 117 kts 281°
2026-04-23 17:02 37.79086 -92.23702 3045 ft 117 kts 278°
2026-04-23 17:02 37.79377 -92.24660 3236 ft 117 kts 276°
2026-04-23 17:03 37.79662 -92.25700 3303 ft 127 kts 275°
2026-04-23 17:03 37.79937 -92.26749 3489 ft 125 kts 275°
2026-04-23 17:03 37.80211 -92.27848 3694 ft 123 kts 274°
2026-04-23 17:03 37.80481 -92.28979 3907 ft 121 kts 272°
2026-04-23 17:04 37.80714 -92.29996 4099 ft 121 kts 272°
2026-04-23 17:04 37.80951 -92.31016 4295 ft 120 kts 272°
2026-04-23 17:04 37.81177 -92.32031 4489 ft 119 kts 272°
2026-04-23 17:04 37.81392 -92.33034 4682 ft 118 kts 271°
2026-04-23 17:05 37.81595 -92.34031 4875 ft 118 kts 270°
2026-04-23 17:05 37.81784 -92.35043 5072 ft 116 kts 269°
2026-04-23 17:05 37.81956 -92.36043 5267 ft 116 kts 268°
2026-04-23 17:05 37.82116 -92.37028 5458 ft 115 kts 268°
2026-04-23 17:06 37.82268 -92.38023 5653 ft 115 kts 267°
2026-04-23 17:06 37.82410 -92.39010 5846 ft 114 kts 266°
2026-04-23 17:06 37.82542 -92.39995 6040 ft 114 kts 266°
2026-04-23 17:06 37.82665 -92.40987 6236 ft 113 kts 266°
2026-04-23 17:07 37.82780 -92.41976 6432 ft 113 kts 266°
2026-04-23 17:07 37.82887 -92.42957 6626 ft 113 kts 266°
2026-04-23 17:07 37.82984 -92.43926 6818 ft 112 kts 265°
2026-04-23 17:07 37.83073 -92.44905 7015 ft 112 kts 265°
2026-04-23 17:08 37.83149 -92.45884 7211 ft 111 kts 264°
2026-04-23 17:08 37.83214 -92.46858 7406 ft 111 kts 264°
2026-04-23 17:08 37.83271 -92.47836 7602 ft 111 kts 264°
2026-04-23 17:08 37.83317 -92.48802 7796 ft 110 kts 263°
2026-04-23 17:09 37.83355 -92.49765 7989 ft 110 kts 263°
2026-04-23 17:09 37.83383 -92.50731 8181 ft 110 kts 263°
2026-04-23 17:09 37.83403 -92.51695 8375 ft 109 kts 263°
2026-04-23 17:09 37.83414 -92.52647 8565 ft 109 kts 263°
2026-04-23 17:10 37.83417 -92.53606 8758 ft 108 kts 262°
2026-04-23 17:10 37.83411 -92.54561 8946 ft 108 kts 262°
2026-04-23 17:10 37.83396 -92.55498 9131 ft 107 kts 262°
2026-04-23 17:10 37.83285 -92.56419 9322 ft 106 kts 255°
2026-04-23 17:11 37.83153 -92.57340 9512 ft 106 kts 254°
2026-04-23 17:11 37.83011 -92.58248 9704 ft 106 kts 254°
2026-04-23 17:11 37.82861 -92.59162 9897 ft 106 kts 254°
2026-04-23 17:11 37.82704 -92.60073 10093 ft 106 kts 253°
2026-04-23 17:12 37.82539 -92.60976 10280 ft 107 kts 253°
2026-04-23 17:12 37.82315 -92.61873 10480 ft 106 kts 248°
2026-04-23 17:12 37.82050 -92.62749 10675 ft 107 kts 246°
2026-04-23 17:12 37.81770 -92.63612 10865 ft 107 kts 245°
2026-04-23 17:13 37.81433 -92.64522 10820 ft 126 kts 244°
2026-04-23 17:13 37.81066 -92.65586 10870 ft 131 kts 252°
2026-04-23 17:13 37.80871 -92.66814 10645 ft 151 kts 255°
2026-04-23 17:13 37.80449 -92.68091 10456 ft 161 kts 245°
2026-04-23 17:14 37.80245 -92.69508 10220 ft 170 kts 269°
2026-04-23 17:14 37.80353 -92.70994 10155 ft 163 kts 268°
2026-04-23 17:14 37.80390 -92.72408 10018 ft 164 kts 267°
2026-04-23 17:14 37.80402 -92.73865 9813 ft 167 kts 266°
2026-04-23 17:15 37.80401 -92.75342 9604 ft 170 kts 265°
2026-04-23 17:15 37.80391 -92.76841 9390 ft 171 kts 265°
2026-04-23 17:15 37.80672 -92.78307 9141 ft 184 kts 299°
2026-04-23 17:15 37.81667 -92.79378 8929 ft 191 kts 320°
2026-04-23 17:16 37.82830 -92.80196 8712 ft 194 kts 326°
2026-04-23 17:16 37.84057 -92.80933 8492 ft 195 kts 327°
2026-04-23 17:16 37.85302 -92.81641 8273 ft 196 kts 328°
2026-04-23 17:16 37.86557 -92.82340 8054 ft 196 kts 328°
2026-04-23 17:17 37.87809 -92.83036 7838 ft 197 kts 328°
2026-04-23 17:17 37.89073 -92.83736 7623 ft 197 kts 329°
2026-04-23 17:17 37.90334 -92.84432 7411 ft 198 kts 328°
2026-04-23 17:17 37.91603 -92.85133 7198 ft 198 kts 328°
2026-04-23 17:18 37.94127 -92.86530 6772 ft 199 kts 328°
2026-04-23 17:18 37.95170 -92.87081 4048 ft 260 kts 296°
2026-04-23 17:18 37.95533 -92.87225 788 ft 0 kts 219°
2026-04-23 17:19 37.73321 -92.13793 1137 ft 0 kts 294°